#timestamp,LO_Frequency,Hit 
1502992815.6,286046995.4,N
1502992835.4,286046997.6,N
1502992855.2,286046997.4,N
1502992875.0,286046997.1,N
1502992875.9,286046997.1,N
1502992895.8,286046998.5,N
1502992915.6,286047000.9,N
1502992935.4,286047000.7,N
1502992955.3,286047000.8,N
1502992975.1,286046999.3,N
1502992995.8,286046998.6,N
1502993015.7,286047000.8,N
1502993035.5,286047000.7,N
1502993055.3,286046999.9,N
1502993075.2,286046997.9,N
1502993095.9,286046996.2,N
1502993115.7,286046994.9,N
1502993135.6,286046996.4,N
1502993155.4,286046994.2,N
1502993175.2,286046994.6,N
1502993195.1,286046992.2,N
1502993196.0,286046992.2,N
1502993215.8,286046993.7,N
1502993235.6,286046995.8,N
1502993255.5,286046997.1,N
1502993275.3,286046995.4,N
1502993295.1,286046996.6,N
1502993315.8,286046997.3,N
1502993335.7,286046999.1,N
1502993355.5,286046996.9,N
1502993375.3,286046996.7,N
1502993395.2,286046997.6,N
1502993415.9,286046995.5,N
1502993435.7,286046995.8,N
1502993455.6,286046993.5,N
1502993475.4,286046994.1,N
1502993495.2,286046992.6,N
1502993515.2,286046990.6,P
1502993535.9,286046995.7,N
1502993555.7,286046995.6,N
1502993575.6,286046993.3,N
1502993595.4,286046995.8,N
1502993615.2,286046996.1,N
1502993635.1,286046993.8,P
1502993636.0,286046993.8,P
1502993655.8,286046998.1,P
1502993675.6,286047000.7,N
1502993695.5,286046998.2,N
1502993715.3,286047000.4,N
1502993735.1,286046998.8,N
1502993755.8,286047000.8,N
1502993775.7,286046998.7,N
1502993795.5,286047001.0,N
1502993815.3,286047000.2,N
1502993835.2,286046998.8,N
1502993855.9,286046999.5,N
1502993875.7,286046997.3,N
1502993895.6,286046997.7,N
1502993915.4,286046997.5,N
1502993935.2,286046997.0,N
1502993955.1,286046997.0,N
1502993956.0,286046997.0,N
1502993975.8,286046998.8,N
1502993995.6,286046998.8,N
1502994015.5,286046995.4,N
1502994035.3,286046997.5,N
1502994055.1,286046995.0,N
1502994075.9,286046995.7,N
1502994095.7,286046997.9,N
1502994115.5,286046996.2,N
1502994135.4,286046993.4,P
1502994155.2,286046996.8,N
1502994175.0,286046999.8,N
1502994175.9,286046999.8,N
1502994195.8,286047001.9,N
1502994215.6,286047003.9,N
1502994235.4,286047004.1,N
1502994255.3,286047002.2,N
1502994275.1,286046998.5,N
1502994276.0,286046998.5,N
1502994295.8,286047001.2,N
1502994315.6,286046999.9,N
1502994335.5,286047001.8,N
1502994355.3,286047004.1,N
1502994375.1,286047003.8,N
1502994395.9,286047004.2,N
1502994415.7,286046998.7,N
1502994435.5,286047000.4,N
1502994455.4,286047000.5,N
1502994475.2,286047001.4,N
1502994495.0,286047002.0,N
1502994495.9,286047002.0,N
1502994515.8,286047003.4,N
1502994535.6,286047005.4,N
1502994555.4,286047005.4,N
1502994575.3,286047002.9,N
1502994595.1,286047006.9,N
1502994596.0,286047006.9,N
1502994615.8,286047004.8,N
1502994635.7,286047007.6,N
1502994655.5,286047006.4,N
1502994675.3,286047006.6,N
1502994695.2,286047008.6,P
1502994715.9,286047007.5,N
1502994735.7,286047006.8,N
1502994755.6,286047005.7,N
1502994775.4,286047007.3,P
1502994795.2,286046998.9,N
1502994815.1,286046998.4,N
1502994816.0,286046998.4,N
1502994835.8,286046997.9,N
1502994855.6,286046997.2,N
1502994875.5,286046997.8,N
1502994895.3,286046996.0,N
1502994915.1,286046996.9,N
1502994935.8,286046997.9,N
1502994955.7,286046996.2,N
1502994975.5,286046996.2,N
1502994995.3,286046993.9,N
1502995015.2,286046996.3,N
1502995035.9,286046995.8,N
1502995055.7,286046996.9,N
1502995075.6,286046995.8,N
1502995095.4,286046993.4,N
1502995115.2,286046993.6,N
1502995135.1,286046991.9,N
1502995136.0,286046991.9,N
1502995155.8,286046993.4,N
1502995175.6,286046994.6,N
1502995195.5,286046992.8,N
1502995215.3,286046990.5,N
1502995235.1,286046991.4,N
1502995255.8,286046992.6,N
1502995275.7,286046994.2,N
1502995295.5,286046994.8,N
1502995315.3,286046992.1,N
1502995335.2,286046994.1,N
1502995355.9,286046993.6,N
1502995375.7,286046996.3,N
1502995395.6,286046996.2,N
1502995415.4,286046993.6,P
1502995435.2,286046997.0,P
1502995455.1,286046997.5,N
1502995456.0,286046997.5,N
1502995475.8,286046995.1,P
1502995495.6,286047000.3,N
1502995515.5,286047002.0,N
1502995535.3,286047001.5,N
1502995555.1,286047003.0,N
1502995575.9,286047003.9,N
1502995595.7,286047003.7,N
1502995615.5,286047003.1,N
1502995635.4,286047003.3,N
1502995655.2,286047002.0,N
1502995675.0,286047000.4,N
1502995675.9,286047000.4,N
1502995695.8,286047002.4,N
1502995715.6,286047001.0,N
1502995735.4,286047000.9,N
1502995755.3,286047001.0,N
1502995775.1,286047002.7,N
1502995776.0,286047002.7,N
1502995795.8,286047004.4,N
1502995815.7,286047003.5,N
1502995835.5,286047004.2,N
1502995855.3,286047003.4,N
1502995875.1,286047003.6,N
1502995895.9,286046999.8,N
1502995915.7,286047002.2,N
1502995935.5,286047002.4,N
1502995955.4,286046999.9,N
1502995975.2,286047002.8,N
1502995995.0,286047001.7,N
1502995995.9,286047001.7,N
1502996015.8,286047002.2,N
1502996035.6,286047002.5,N
1502996055.4,286047002.0,N
1502996075.3,286047002.7,N
1502996095.1,286047001.4,N
1502996096.0,286047001.4,N
1502996115.8,286046998.3,N
1502996135.7,286047000.9,N
1502996155.5,286047000.2,N
1502996175.3,286046999.7,N
1502996195.2,286047004.4,P
1502996215.9,286047000.4,N
1502996235.7,286046999.9,N
1502996255.6,286047000.1,N
1502996275.4,286047002.1,N
1502996295.2,286047001.5,N
1502996315.1,286047003.5,N
1502996316.0,286047003.5,N
1502996335.8,286047006.0,P
1502996355.6,286047001.4,N
1502996375.5,286047000.5,N
1502996395.3,286046999.8,N
